^^
Mint Hill Weather Station Historical Data
 
Daily Summary for August 27, 2014 Units:  English    Metric   Both
« Previous Day
Next Day »
Daily Weekly Monthly Yearly Custom
  Current: High: Low: Average:
Temperature: 67.5 °F 91.4 °F 61.7 °F 75 °F
Dew Point: 61.5 °F 68.2 °F 59.4 °F 62.1 °F
Humidity: 81% 93% 36% 68%
Wind Speed: 0.0mph 2.8mph 0.0mph 0.3mph
Wind Gust: 0.0mph 6.0mph - -
WindCalm - - SW
Pressure: 30.01 in 30.10 in 29.99 in -
Precipitation: 0.00 in      
Historical Graphs
 
 
Tabular Data for August 27, 2014
Time Temperature Dew Point Pressure Wind Wind Speed Wind Gust Humidity Rainfall Rate (Hourly) solar Conditions
00:00 65.9 °F 61.3 °F 30.10 in Calm     85% 0.00 in 0.0 W/m2 BKN
00:01 65.9 °F 61.3 °F 30.10 in Calm     85% 0.00 in 0.0 W/m2 BKN
00:02 65.8 °F 61.2 °F 30.09 in Calm     85% 0.00 in 0.0 W/m2 BKN
00:07 65.8 °F 61.2 °F 30.09 in Calm     85% 0.00 in 0.0 W/m2 BKN
00:12 65.7 °F 61.1 °F 30.09 in Calm     85% 0.00 in 0.0 W/m2 BKN
00:17 65.7 °F 61.4 °F 30.09 in Calm     86% 0.00 in 0.0 W/m2 BKN
00:22 65.6 °F 61.3 °F 30.09 in Calm     86% 0.00 in 0.0 W/m2 BKN
00:27 65.6 °F 61.3 °F 30.09 in Calm     86% 0.00 in 0.0 W/m2 BKN
00:32 65.5 °F 61.2 °F 30.09 in Calm     86% 0.00 in 0.0 W/m2 BKN
00:37 65.4 °F 61.1 °F 30.09 in Calm     86% 0.00 in 0.0 W/m2 BKN
00:42 65.4 °F 61.1 °F 30.09 in Calm     86% 0.00 in 0.0 W/m2 BKN
00:47 65.3 °F 61.0 °F 30.08 in Calm     86% 0.00 in 0.0 W/m2 BKN
00:52 65.2 °F 60.9 °F 30.08 in Calm     86% 0.00 in 0.0 W/m2 BKN
00:57 65.1 °F 61.1 °F 30.08 in Calm     87% 0.00 in 0.0 W/m2 BKN
01:02 64.6 °F 60.6 °F 30.08 in Calm     87% 0.00 in 0.0 W/m2 BKN
01:07 64.4 °F 60.8 °F 30.08 in Calm     88% 0.00 in 0.0 W/m2 BKN
01:12 64.4 °F 60.8 °F 30.08 in Calm     88% 0.00 in 0.0 W/m2 BKN
01:17 64.3 °F 60.7 °F 30.07 in Calm     88% 0.00 in 0.0 W/m2 BKN
01:22 64.2 °F 60.2 °F 30.07 in Calm     87% 0.00 in 0.0 W/m2 BKN
01:27 64.1 °F 60.2 °F 30.07 in Calm     87% 0.00 in 0.0 W/m2 BKN
01:32 64.0 °F 60.4 °F 30.07 in Calm     88% 0.00 in 0.0 W/m2 BKN
01:37 63.9 °F 60.3 °F 30.07 in Calm     88% 0.00 in 0.0 W/m2 BKN
01:42 63.8 °F 60.2 °F 30.08 in Calm     88% 0.00 in 0.0 W/m2 BKN
01:47 63.7 °F 60.1 °F 30.08 in Calm     88% 0.00 in 0.0 W/m2 BKN
01:52 63.6 °F 60.3 °F 30.08 in Calm     89% 0.00 in 0.0 W/m2 BKN
01:57 63.5 °F 60.2 °F 30.08 in Calm     89% 0.00 in 0.0 W/m2 BKN
02:02 63.5 °F 60.2 °F 30.08 in Calm     89% 0.00 in 0.0 W/m2 BKN
02:07 63.4 °F 60.1 °F 30.07 in Calm     89% 0.00 in 0.0 W/m2 BKN
02:12 63.3 °F 60.0 °F 30.07 in Calm     89% 0.00 in 0.0 W/m2 BKN
02:17 63.3 °F 60.0 °F 30.07 in Calm     89% 0.00 in 0.0 W/m2 BKN
02:22 63.3 °F 60.0 °F 30.06 in Calm     89% 0.00 in 0.0 W/m2 BKN
02:27 63.2 °F 59.9 °F 30.06 in Calm     89% 0.00 in 0.0 W/m2 BKN
02:32 63.2 °F 59.9 °F 30.06 in Calm     89% 0.00 in 0.0 W/m2 BKN
02:37 63.2 °F 59.9 °F 30.06 in Calm     89% 0.00 in 0.0 W/m2 BKN
02:42 63.1 °F 59.8 °F 30.06 in Calm     89% 0.00 in 0.0 W/m2 BKN
02:47 63.1 °F 59.8 °F 30.06 in Calm     89% 0.00 in 0.0 W/m2 BKN
02:52 63.0 °F 59.7 °F 30.06 in Calm     89% 0.00 in 0.0 W/m2 BKN
02:57 63.0 °F 60.0 °F 30.06 in Calm     90% 0.00 in 0.0 W/m2 BKN
03:02 62.9 °F 59.9 °F 30.06 in Calm     90% 0.00 in 0.0 W/m2 BKN
03:07 62.8 °F 59.8 °F 30.07 in Calm     90% 0.00 in 0.0 W/m2 BKN
03:12 62.7 °F 59.7 °F 30.06 in Calm     90% 0.00 in 0.0 W/m2 BKN
03:17 62.7 °F 59.7 °F 30.06 in Calm     90% 0.00 in 0.0 W/m2 BKN
03:22 62.6 °F 59.6 °F 30.06 in Calm     90% 0.00 in 0.0 W/m2 BKN
03:27 62.6 °F 59.6 °F 30.06 in Calm     90% 0.00 in 0.0 W/m2 BKN
03:32 62.5 °F 59.5 °F 30.06 in Calm     90% 0.00 in 0.0 W/m2 BKN
03:38 62.5 °F 59.5 °F 30.06 in Calm     90% 0.00 in 0.0 W/m2 BKN
03:43 62.4 °F 59.4 °F 30.06 in Calm     90% 0.00 in 0.0 W/m2 BKN
03:48 62.4 °F 59.7 °F 30.06 in Calm     91% 0.00 in 0.0 W/m2 BKN
03:53 62.3 °F 59.6 °F 30.06 in Calm     91% 0.00 in 0.0 W/m2 BKN
03:58 62.3 °F 59.6 °F 30.06 in Calm     91% 0.00 in 0.0 W/m2 BKN
04:03 62.3 °F 59.6 °F 30.06 in Calm     91% 0.00 in 0.0 W/m2 BKN
04:08 62.3 °F 59.6 °F 30.05 in Calm     91% 0.00 in 0.0 W/m2 BKN
04:13 62.2 °F 59.5 °F 30.06 in Calm     91% 0.00 in 0.0 W/m2 BKN
04:18 62.2 °F 59.5 °F 30.06 in Calm     91% 0.00 in 0.0 W/m2 BKN
04:23 62.2 °F 59.8 °F 30.06 in Calm     92% 0.00 in 0.0 W/m2 BKN
04:28 62.1 °F 59.7 °F 30.06 in Calm     92% 0.00 in 0.0 W/m2 BKN
04:33 62.1 °F 59.4 °F 30.06 in Calm     91% 0.00 in 0.0 W/m2 BKN
04:38 62.0 °F 59.6 °F 30.05 in Calm     92% 0.00 in 0.0 W/m2 BKN
04:45 62.0 °F 59.6 °F 30.05 in Calm     92% 0.00 in 0.0 W/m2 BKN
04:50 62.0 °F 59.6 °F 30.05 in Calm     92% 0.00 in 0.0 W/m2 BKN
04:55 62.0 °F 59.6 °F 30.05 in Calm     92% 0.00 in 0.0 W/m2 BKN
05:00 62.0 °F 59.6 °F 30.05 in Calm     92% 0.00 in 0.0 W/m2 BKN
05:05 62.0 °F 59.6 °F 30.05 in Calm     92% 0.00 in 0.0 W/m2 BKN
05:10 62.0 °F 59.6 °F 30.05 in Calm     92% 0.00 in 0.0 W/m2 BKN
05:15 61.9 °F 59.5 °F 30.05 in Calm     92% 0.00 in 0.0 W/m2 BKN
05:20 61.9 °F 59.5 °F 30.05 in Calm     92% 0.00 in 0.0 W/m2 BKN
05:25 61.8 °F 59.5 °F 30.05 in Calm     92% 0.00 in 0.0 W/m2 BKN
05:30 61.8 °F 59.5 °F 30.05 in Calm     92% 0.00 in 0.0 W/m2 BKN
06:56 61.7 °F 59.4 °F 30.07 in Calm   1.1 mph 92% 0.00 in 6.0 W/m2 BKN
07:01 61.7 °F 59.7 °F 30.07 in Calm     93% 0.00 in 6.0 W/m2 BKN
07:06 61.8 °F 59.8 °F 30.07 in Calm     93% 0.00 in 8.4 W/m2 BKN
07:11 61.8 °F 59.8 °F 30.07 in Calm     93% 0.00 in 10.8 W/m2 BKN
07:16 61.9 °F 59.9 °F 30.08 in Calm     93% 0.00 in 13.2 W/m2 BKN
07:21 61.9 °F 59.9 °F 30.08 in Calm     93% 0.00 in 14.4 W/m2 BKN
07:26 62.0 °F 60.0 °F 30.08 in Calm     93% 0.00 in 16.8 W/m2 BKN
07:31 62.1 °F 60.1 °F 30.08 in Calm     93% 0.00 in 19.2 W/m2 BKN
07:36 62.1 °F 59.7 °F 30.08 in Calm     92% 0.00 in 21.6 W/m2 BKN
07:41 62.2 °F 59.8 °F 30.08 in Calm     92% 0.00 in 22.8 W/m2 BKN
07:46 62.2 °F 59.8 °F 30.09 in Calm     92% 0.00 in 25.2 W/m2 BKN
07:51 62.3 °F 60.2 °F 30.09 in Calm     93% 0.00 in 30.0 W/m2 BKN
07:56 62.5 °F 60.4 °F 30.09 in Calm     93% 0.00 in 31.2 W/m2 BKN
08:01 62.5 °F 60.4 °F 30.09 in Calm     93% 0.00 in 33.6 W/m2 BKN
08:06 62.7 °F 60.6 °F 30.09 in Calm     93% 0.00 in 33.6 W/m2 BKN
08:11 63.1 °F 60.7 °F 30.09 in Calm     92% 0.00 in 33.6 W/m2 BKN
08:16 63.7 °F 61.0 °F 30.09 in Calm     91% 0.00 in 36.0 W/m2 BKN
08:21 63.9 °F 61.2 °F 30.09 in Calm     91% 0.00 in 36.0 W/m2 BKN
08:26 64.2 °F 61.2 °F 30.09 in Calm     90% 0.00 in 42.0 W/m2 BKN
08:31 64.6 °F 61.6 °F 30.10 in Calm     90% 0.00 in 42.0 W/m2 BKN
08:36 65.0 °F 61.7 °F 30.09 in Calm     89% 0.00 in 42.0 W/m2 BKN
08:41 65.2 °F 61.9 °F 30.09 in Calm     89% 0.00 in 78.0 W/m2 BKN
08:46 65.4 °F 62.1 °F 30.10 in Calm     89% 0.00 in 56.4 W/m2 BKN
08:51 65.6 °F 62.3 °F 30.10 in Calm     89% 0.00 in 64.8 W/m2 BKN
08:56 66.0 °F 62.7 °F 30.10 in Calm     89% 0.00 in 56.4 W/m2 BKN
09:01 66.3 °F 62.6 °F 30.10 in Calm     88% 0.00 in 58.8 W/m2 BKN
09:07 66.7 °F 63.0 °F 30.10 in Calm     88% 0.00 in 61.2 W/m2 BKN
09:12 67.2 °F 62.9 °F 30.10 in Calm   2.3 mph 86% 0.00 in 64.8 W/m2 BKN
09:17 67.6 °F 63.3 °F 30.10 in NW 0.3 mph 1.1 mph 86% 0.00 in 64.8 W/m2 BKN
09:22 67.9 °F 63.6 °F 30.10 in Calm   1.1 mph 86% 0.00 in 72.0 W/m2 BKN
09:27 68.2 °F 63.5 °F 30.09 in Calm   1.1 mph 85% 0.00 in 75.6 W/m2 BKN
09:32 69.0 °F 63.6 °F 30.09 in North 0.2 mph 1.1 mph 83% 0.00 in 240.0 W/m2 BKN
09:37 69.6 °F 64.2 °F 30.09 in NW 0.3 mph 2.3 mph 83% 0.00 in 598.8 W/m2 BKN
09:42 70.2 °F 64.8 °F 30.09 in WNW 0.5 mph 3.5 mph 83% 0.00 in 639.6 W/m2 FEW
09:47 71.1 °F 65.3 °F 30.09 in NW 0.4 mph 1.1 mph 82% 0.00 in 598.8 W/m2 CLR
09:52 72.2 °F 66.0 °F 30.09 in Calm     81% 0.00 in 442.8 W/m2 CLR
09:57 72.9 °F 65.6 °F 30.09 in WSW 0.3 mph 2.3 mph 78% 0.00 in 540.0 W/m2 FEW
10:02 73.4 °F 65.7 °F 30.09 in West 0.9 mph 2.3 mph 77% 0.00 in 690.0 W/m2 FEW
10:07 74.2 °F 65.8 °F 30.09 in NNW 1.1 mph 2.3 mph 75% 0.00 in 702.0 W/m2 CLR
10:12 75.0 °F 67.3 °F 30.09 in ESE 0.1 mph 1.1 mph 77% 0.00 in 727.2 W/m2 CLR
10:17 76.0 °F 67.1 °F 30.09 in Calm   1.1 mph 74% 0.00 in 742.8 W/m2 CLR
10:22 77.1 °F 68.2 °F 30.09 in NNW 0.6 mph 2.3 mph 74% 0.00 in 757.2 W/m2 CLR
10:27 77.8 °F 67.6 °F 30.09 in ESE 0.6 mph 1.1 mph 71% 0.00 in 795.6 W/m2 CLR
10:32 77.7 °F 65.4 °F 30.09 in NNW 1.3 mph 3.5 mph 66% 0.00 in 796.8 W/m2 CLR
10:37 78.0 °F 67.8 °F 30.09 in NNW 0.3 mph 1.1 mph 71% 0.00 in 684.0 W/m2 CLR
10:42 78.3 °F 66.9 °F 30.09 in WNW 0.4 mph 2.3 mph 68% 0.00 in 871.2 W/m2 CLR
10:47 78.6 °F 66.3 °F 30.09 in ESE 0.4 mph 2.3 mph 66% 0.00 in 837.6 W/m2 CLR
10:52 79.4 °F 66.6 °F 30.09 in Calm     65% 0.00 in 820.8 W/m2 CLR
10:57 79.6 °F 66.8 °F 30.09 in Calm     65% 0.00 in 816.0 W/m2 CLR
11:02 79.8 °F 66.1 °F 30.09 in Calm     63% 0.00 in 860.4 W/m2 CLR
11:07 80.5 °F 67.6 °F 30.09 in East 0.1 mph   65% 0.00 in 888.0 W/m2 CLR
11:12 80.6 °F 65.4 °F 30.09 in NW 0.6 mph 2.3 mph 60% 0.00 in 924.0 W/m2 CLR
11:17 81.0 °F 66.3 °F 30.09 in East 1.2 mph 3.5 mph 61% 0.00 in 924.0 W/m2 CLR
11:22 81.4 °F 65.7 °F 30.08 in West 0.2 mph 1.1 mph 59% 0.00 in 946.8 W/m2 CLR
11:27 81.8 °F 67.0 °F 30.09 in Calm   1.1 mph 61% 0.00 in 960.0 W/m2 CLR
11:32 82.4 °F 67.1 °F 30.09 in WNW 0.5 mph 3.0 mph 60% 0.00 in 930.0 W/m2 CLR
11:37 82.4 °F 66.6 °F 30.08 in SE 0.5 mph 1.1 mph 59% 0.00 in 985.2 W/m2 CLR
11:42 82.4 °F 66.6 °F 30.08 in SE 0.1 mph   59% 0.00 in 1004.4 W/m2 CLR
11:47 83.0 °F 66.2 °F 30.08 in SE 0.1 mph 1.1 mph 57% 0.00 in 993.6 W/m2 CLR
11:52 83.4 °F 64.5 °F 30.08 in NW 0.3 mph 1.1 mph 53% 0.00 in 997.2 W/m2 CLR
11:58 83.7 °F 66.3 °F 30.08 in NE 0.9 mph 3.0 mph 56% 0.00 in 993.6 W/m2 CLR
12:03 84.2 °F 65.2 °F 30.08 in ENE 0.6 mph 2.3 mph 53% 0.00 in 1040.4 W/m2 CLR
12:08 84.3 °F 66.9 °F 30.08 in NE 0.1 mph 1.1 mph 56% 0.00 in 1023.6 W/m2 CLR
12:13 85.0 °F 68.1 °F 30.08 in ENE 0.3 mph 1.0 mph 57% 0.00 in 1052.4 W/m2 CLR
12:18 84.8 °F 65.2 °F 30.07 in NW 2.1 mph 5.8 mph 52% 0.00 in 1057.2 W/m2 CLR
12:23 85.2 °F 64.5 °F 30.07 in SE 0.8 mph 2.3 mph 50% 0.00 in 1080.0 W/m2 CLR
12:28 85.1 °F 63.2 °F 30.07 in WNW 1.6 mph 6.0 mph 48% 0.00 in 1082.4 W/m2 CLR
12:33 85.1 °F 64.4 °F 30.07 in WNW 0.2 mph 2.3 mph 50% 0.00 in 1086.0 W/m2 CLR
12:38 85.9 °F 64.5 °F 30.07 in ESE 2.2 mph 2.3 mph 49% 0.00 in 1094.4 W/m2 CLR
12:43 85.6 °F 63.7 °F 30.07 in Calm     48% 0.00 in 1093.2 W/m2 CLR
12:48 85.8 °F 63.8 °F 30.06 in SSW 2.0 mph 3.5 mph 48% 0.00 in 1094.4 W/m2 CLR
12:53 86.1 °F 63.5 °F 30.06 in NE 1.3 mph 2.3 mph 47% 0.00 in 1102.8 W/m2 CLR
12:58 86.7 °F 64.1 °F 30.06 in NW 0.3 mph 2.3 mph 47% 0.00 in 1107.6 W/m2 CLR
13:03 86.6 °F 64.0 °F 30.06 in SE 0.6 mph 2.3 mph 47% 0.00 in 1110.0 W/m2 CLR
13:08 86.8 °F 65.9 °F 30.06 in ESE 0.5 mph 2.3 mph 50% 0.00 in 1107.6 W/m2 CLR
13:13 86.2 °F 64.2 °F 30.06 in Calm   1.1 mph 48% 0.00 in 1113.6 W/m2 CLR
13:18 86.6 °F 63.4 °F 30.06 in NNE 0.4 mph 2.3 mph 46% 0.00 in 1110.0 W/m2 CLR
13:23 86.3 °F 67.2 °F 30.05 in East 0.8 mph 3.5 mph 53% 0.00 in 1110.0 W/m2 CLR
13:28 87.3 °F 65.8 °F 30.05 in ESE 2.4 mph 3.5 mph 49% 0.00 in 1116.0 W/m2 CLR
13:33 87.4 °F 63.5 °F 30.05 in North 2.2 mph 3.5 mph 45% 0.00 in 1118.4 W/m2 CLR
13:38 86.5 °F 63.9 °F 30.05 in ENE 1.7 mph 4.6 mph 47% 0.00 in 1118.4 W/m2 CLR
13:43 87.4 °F 62.2 °F 30.05 in East 0.1 mph   43% 0.00 in 1119.6 W/m2 CLR
13:48 87.9 °F 62.6 °F 30.05 in NW 0.1 mph 2.3 mph 43% 0.00 in 1118.4 W/m2 CLR
13:53 88.1 °F 62.1 °F 30.05 in ESE 0.5 mph 2.3 mph 42% 0.00 in 1110.0 W/m2 CLR
13:58 89.0 °F 61.5 °F 30.05 in East 0.1 mph 2.3 mph 40% 0.00 in 1107.6 W/m2 CLR
14:03 88.8 °F 62.7 °F 30.05 in Calm   1.1 mph 42% 0.00 in 1107.6 W/m2 CLR
14:08 88.9 °F 62.2 °F 30.04 in North 0.2 mph 2.3 mph 41% 0.00 in 1102.8 W/m2 CLR
14:13 89.4 °F 61.9 °F 30.04 in Calm   2.3 mph 40% 0.00 in 1105.2 W/m2 CLR
14:18 89.4 °F 59.7 °F 30.04 in NNW 0.6 mph 1.1 mph 37% 0.00 in 1096.8 W/m2 CLR
14:23 89.1 °F 60.2 °F 30.03 in ENE 0.5 mph 1.1 mph 38% 0.00 in 1093.2 W/m2 CLR
14:28 90.0 °F 62.4 °F 30.03 in NNW 2.2 mph 2.2 mph 40% 0.00 in 1082.4 W/m2 CLR
14:33 90.2 °F 62.6 °F 30.03 in NW 0.3 mph 1.1 mph 40% 0.00 in 1071.6 W/m2 CLR
14:38 89.9 °F 61.6 °F 30.03 in WNW 1.1 mph 2.3 mph 39% 0.00 in 1063.2 W/m2 CLR
14:43 90.4 °F 62.8 °F 30.03 in West 2.7 mph 4.6 mph 40% 0.00 in 1054.8 W/m2 CLR
14:48 89.2 °F 62.4 °F 30.03 in West 2.5 mph 3.5 mph 41% 0.00 in 1052.4 W/m2 CLR
14:53 89.0 °F 62.9 °F 30.03 in NE 1.2 mph 3.5 mph 42% 0.00 in 1032.0 W/m2 CLR
14:58 90.1 °F 63.9 °F 30.02 in North 0.7 mph 2.3 mph 42% 0.00 in 1024.8 W/m2 CLR
15:03 90.9 °F 63.2 °F 30.02 in North 0.9 mph 3.5 mph 40% 0.00 in 1015.2 W/m2 CLR
15:08 91.4 °F 65.1 °F 30.02 in NE 0.1 mph 1.1 mph 42% 0.00 in 1008.0 W/m2 CLR
15:13 90.3 °F 61.2 °F 30.02 in WNW 2.8 mph 5.8 mph 38% 0.00 in 1004.4 W/m2 CLR
15:18 90.1 °F 61.8 °F 30.02 in NNE 0.6 mph 2.3 mph 39% 0.00 in 987.6 W/m2 CLR
15:23 90.6 °F 63.7 °F 30.01 in ESE 1.5 mph 3.5 mph 41% 0.00 in 976.8 W/m2 CLR
15:28 90.8 °F 60.9 °F 30.01 in NW 1.1 mph 3.5 mph 37% 0.00 in 960.0 W/m2 CLR
15:33 89.8 °F 60.8 °F 30.01 in NW 0.2 mph 1.1 mph 38% 0.00 in 943.2 W/m2 CLR
15:38 90.4 °F 62.1 °F 30.01 in NW 0.2 mph 1.1 mph 39% 0.00 in 932.4 W/m2 CLR
15:43 90.9 °F 61.8 °F 30.01 in SW 0.3 mph 2.3 mph 38% 0.00 in 926.4 W/m2 CLR
15:48 91.1 °F 60.4 °F 30.01 in WNW 1.6 mph 5.0 mph 36% 0.00 in 909.6 W/m2 CLR
15:53 90.2 °F 61.9 °F 30.01 in East 1.5 mph 3.5 mph 39% 0.00 in 896.4 W/m2 CLR
15:58 90.2 °F 60.4 °F 30.01 in NW 0.6 mph 2.3 mph 37% 0.00 in 873.6 W/m2 CLR
16:03 90.6 °F 62.3 °F 30.00 in East 0.8 mph 2.3 mph 39% 0.00 in 854.4 W/m2 CLR
16:08 90.9 °F 63.2 °F 30.01 in NNW 1.8 mph 3.5 mph 40% 0.00 in 840.0 W/m2 CLR
16:13 91.0 °F 61.9 °F 30.00 in WSW 2.4 mph 3.5 mph 38% 0.00 in 796.8 W/m2 CLR
16:18 90.5 °F 62.9 °F 30.00 in NNW 0.6 mph 4.0 mph 40% 0.00 in 776.4 W/m2 CLR
16:24 90.5 °F 61.4 °F 30.00 in NW 0.7 mph 3.5 mph 38% 0.00 in 790.8 W/m2 CLR
16:29 90.7 °F 61.6 °F 30.00 in NNW 1.9 mph 5.0 mph 38% 0.00 in 768.0 W/m2 CLR
16:34 90.7 °F 62.3 °F 30.00 in NE 0.7 mph 2.3 mph 39% 0.00 in 762.0 W/m2 CLR
16:39 90.3 °F 64.1 °F 30.00 in WSW 0.7 mph 2.0 mph 42% 0.00 in 742.8 W/m2 CLR
16:44 90.5 °F 62.9 °F 30.00 in SE 1.8 mph 2.3 mph 40% 0.00 in 700.8 W/m2 CLR
16:49 90.8 °F 62.4 °F 30.00 in SW 0.5 mph 3.5 mph 39% 0.00 in 675.6 W/m2 CLR
16:54 90.6 °F 65.0 °F 30.00 in East 0.1 mph 2.3 mph 43% 0.00 in 679.2 W/m2 CLR
16:59 89.9 °F 63.7 °F 30.00 in West 0.3 mph 1.1 mph 42% 0.00 in 657.6 W/m2 CLR
17:04 89.6 °F 63.5 °F 30.00 in ESE 1.2 mph 2.3 mph 42% 0.00 in 648.0 W/m2 CLR
17:09 89.3 °F 61.1 °F 30.00 in West 1.4 mph 3.5 mph 39% 0.00 in 631.2 W/m2 CLR
17:14 89.9 °F 62.3 °F 30.00 in WNW 0.5 mph 3.0 mph 40% 0.00 in 607.2 W/m2 CLR
17:19 89.9 °F 60.9 °F 29.99 in NNE 1.5 mph 3.5 mph 38% 0.00 in 590.4 W/m2 CLR
17:24 89.6 °F 62.1 °F 29.99 in NNW 0.3 mph 1.1 mph 40% 0.00 in 565.2 W/m2 CLR
17:29 89.7 °F 63.6 °F 29.99 in NNW 0.1 mph 3.0 mph 42% 0.00 in 544.8 W/m2 CLR
17:34 89.4 °F 61.9 °F 29.99 in WNW 0.5 mph 3.0 mph 40% 0.00 in 529.2 W/m2 CLR
17:39 89.2 °F 63.8 °F 30.00 in SE 0.5 mph 1.1 mph 43% 0.00 in 506.4 W/m2 CLR
17:44 88.6 °F 61.2 °F 30.00 in NW 1.1 mph 3.5 mph 40% 0.00 in 484.8 W/m2 CLR
17:49 88.3 °F 62.3 °F 30.00 in NNW 0.4 mph 1.1 mph 42% 0.00 in 464.4 W/m2 CLR
17:54 88.1 °F 62.1 °F 30.00 in NNW 0.2 mph 3.5 mph 42% 0.00 in 440.4 W/m2 CLR
17:59 87.7 °F 63.1 °F 30.00 in NW 0.3 mph 2.3 mph 44% 0.00 in 423.6 W/m2 CLR
18:04 87.2 °F 63.3 °F 30.00 in NNW 1.7 mph 1.7 mph 45% 0.00 in 403.2 W/m2 CLR
18:09 86.8 °F 62.9 °F 30.00 in NNW 0.1 mph 1.1 mph 45% 0.00 in 308.4 W/m2 CLR
18:14 86.4 °F 62.5 °F 30.00 in North 0.1 mph 1.1 mph 45% 0.00 in 274.8 W/m2 CLR
18:19 86.1 °F 62.3 °F 29.99 in NW 0.4 mph 1.0 mph 45% 0.00 in 166.8 W/m2 CLR
18:24 85.7 °F 61.3 °F 30.00 in NW 0.1 mph 1.1 mph 44% 0.00 in 80.4 W/m2 CLR
18:29 85.3 °F 61.6 °F 30.00 in NNW 0.6 mph   45% 0.00 in 56.4 W/m2 CLR
18:34 84.9 °F 61.2 °F 30.00 in Calm     45% 0.00 in 84.0 W/m2 CLR
18:39 84.6 °F 62.7 °F 30.00 in Calm     48% 0.00 in 52.8 W/m2 CLR
18:44 84.4 °F 62.6 °F 29.99 in Calm     48% 0.00 in 50.4 W/m2 CLR
18:49 84.1 °F 62.3 °F 29.99 in Calm     48% 0.00 in 48.0 W/m2 CLR
18:54 83.6 °F 62.4 °F 29.99 in Calm     49% 0.00 in 46.8 W/m2 CLR
18:59 83.0 °F 62.4 °F 29.99 in Calm     50% 0.00 in 44.4 W/m2 CLR
19:04 82.7 °F 62.7 °F 29.99 in Calm     51% 0.00 in 39.6 W/m2 CLR
19:09 82.4 °F 62.5 °F 29.99 in NNW 0.1 mph   51% 0.00 in 38.4 W/m2 CLR
19:14 82.0 °F 62.6 °F 29.99 in Calm   1.1 mph 52% 0.00 in 36.0 W/m2 CLR
19:19 81.6 °F 62.3 °F 29.99 in Calm     52% 0.00 in 30.0 W/m2 CLR
19:24 81.3 °F 62.5 °F 29.99 in Calm     53% 0.00 in 22.8 W/m2 CLR
19:29 80.9 °F 62.2 °F 29.99 in Calm     53% 0.00 in 19.2 W/m2 CLR
19:34 80.5 °F 61.8 °F 29.99 in Calm     53% 0.00 in 14.4 W/m2 CLR
19:39 80.2 °F 61.5 °F 29.99 in Calm     53% 0.00 in 10.8 W/m2 CLR
19:44 79.9 °F 61.8 °F 29.99 in Calm     54% 0.00 in 8.4 W/m2 CLR
19:49 79.5 °F 61.4 °F 29.99 in Calm     54% 0.00 in 6.0 W/m2 CLR
19:54 79.1 °F 61.5 °F 29.99 in Calm     55% 0.00 in 0.0 W/m2 CLR
19:59 78.5 °F 61.0 °F 29.99 in Calm     55% 0.00 in 0.0 W/m2 CLR
20:04 78.1 °F 61.1 °F 29.99 in Calm     56% 0.00 in 0.0 W/m2 CLR
20:09 77.7 °F 61.3 °F 29.99 in Calm     57% 0.00 in 0.0 W/m2 CLR
20:14 76.9 °F 61.5 °F 29.99 in Calm     59% 0.00 in 0.0 W/m2 CLR
20:19 76.4 °F 61.5 °F 29.99 in Calm     60% 0.00 in 0.0 W/m2 CLR
20:24 76.0 °F 61.6 °F 29.99 in Calm     61% 0.00 in 0.0 W/m2 CLR
20:29 75.5 °F 61.6 °F 30.00 in Calm     62% 0.00 in 0.0 W/m2 CLR
20:34 74.9 °F 61.5 °F 30.00 in Calm     63% 0.00 in 0.0 W/m2 CLR
20:39 74.5 °F 61.5 °F 30.00 in Calm     64% 0.00 in 0.0 W/m2 CLR
20:44 74.2 °F 61.2 °F 30.00 in Calm     64% 0.00 in 0.0 W/m2 CLR
20:49 73.8 °F 61.3 °F 30.00 in Calm     65% 0.00 in 0.0 W/m2 CLR
20:54 73.2 °F 61.6 °F 30.00 in Calm     67% 0.00 in 0.0 W/m2 CLR
20:59 72.8 °F 61.6 °F 30.01 in Calm     68% 0.00 in 0.0 W/m2 CLR
21:04 72.4 °F 61.7 °F 30.01 in Calm     69% 0.00 in 0.0 W/m2 CLR
21:09 72.2 °F 61.0 °F 30.01 in Calm     68% 0.00 in 0.0 W/m2 CLR
21:14 72.0 °F 60.9 °F 30.00 in Calm     68% 0.00 in 0.0 W/m2 CLR
21:19 71.8 °F 61.1 °F 30.01 in Calm     69% 0.00 in 0.0 W/m2 CLR
21:24 71.5 °F 61.2 °F 30.01 in Calm     70% 0.00 in 0.0 W/m2 CLR
21:29 71.3 °F 61.0 °F 30.01 in Calm     70% 0.00 in 0.0 W/m2 CLR
21:34 70.9 °F 61.4 °F 30.01 in Calm     72% 0.00 in 0.0 W/m2 CLR
21:39 70.7 °F 61.2 °F 30.01 in Calm     72% 0.00 in 0.0 W/m2 CLR
21:44 70.4 °F 61.3 °F 30.01 in Calm     73% 0.00 in 0.0 W/m2 CLR
21:50 70.2 °F 61.5 °F 30.01 in Calm     74% 0.00 in 0.0 W/m2 CLR
21:55 69.6 °F 61.3 °F 30.01 in Calm     75% 0.00 in 0.0 W/m2 CLR
22:00 69.4 °F 61.5 °F 30.01 in Calm     76% 0.00 in 0.0 W/m2 CLR
22:05 69.2 °F 61.7 °F 30.01 in Calm     77% 0.00 in 0.0 W/m2 CLR
22:10 68.6 °F 61.5 °F 30.01 in Calm     78% 0.00 in 0.0 W/m2 CLR
22:15 68.2 °F 61.1 °F 30.01 in Calm     78% 0.00 in 0.0 W/m2 CLR
22:20 68.3 °F 61.2 °F 30.01 in Calm     78% 0.00 in 0.0 W/m2 CLR
22:25 68.3 °F 61.2 °F 30.01 in Calm     78% 0.00 in 0.0 W/m2 CLR
22:30 68.2 °F 61.1 °F 30.01 in Calm     78% 0.00 in 0.0 W/m2 CLR
22:35 68.1 °F 61.0 °F 30.01 in Calm     78% 0.00 in 0.0 W/m2 CLR
22:40 68.0 °F 60.9 °F 30.01 in Calm     78% 0.00 in 0.0 W/m2 CLR
22:45 67.9 °F 60.8 °F 30.01 in Calm     78% 0.00 in 0.0 W/m2 CLR
22:50 67.9 °F 61.1 °F 30.01 in Calm     79% 0.00 in 0.0 W/m2 CLR
22:55 67.8 °F 61.4 °F 30.01 in Calm     80% 0.00 in 0.0 W/m2 CLR
23:00 67.5 °F 61.5 °F 30.01 in Calm     81% 0.00 in 0.0 W/m2 CLR
Mint Hill, North Carolina, USA
Compliments of Weather Underground